Location: Gerlach
(40.6516°N, 119.3568°W)
Time: 14:59:31
(UTC-07:00)

Explorer 11/Cluster Stage 4 - Pass Details

Date: 30 January 2023
Orbit: 466 x 1241 km, 28.8° (Epoch: 21 March)

Event Time Altitude Azimuth Distance (km) Brightness Sun altitude
Exits shadow 04:27:27 - 191° (S) 3,787 9.9 -30.8°
Reaches altitude 10° 04:31:33 10° 167° (SSE) 3,191 9.8 -30.0°
Maximum altitude 04:33:47 11° 151° (SSE) 3,096 9.9 -29.6°
Drops below altitude 10° 04:36:01 10° 134° (SE) 3,189 10.2 -29.2°
Sets 04:41:32 0° 104° (ESE) 4,087 11.4 -28.1°
